Regional Weather Roundup
Issued by NWS

Home | Current Version | Previous Version | Graphics & Text | Print | Product List | Glossary On
Versions: 1 2 3 4 5 6 7 8 9 10 11 12 13 14 15 16 17 18 19 20 21 22 23 24 25 26 27 28 29 30 31 32 33 34 35 36 37 38 39 40 41 42 43 44 45 46 47 48 49 50
000
ASUS45 KABQ 051001
RWRNM
NEW MEXICO REGIONAL WEATHER ROUNDUP
NATIONAL WEATHER SERVICE ALBUQUERQUE NM
400 AM MDT THU MAY 05 2016

NOTE: "FAIR" MEANS FEW OR NO CLOUDS BELOW 12,000 FEET AGL WITH NO
       SIGNIFICANT WEATHER OR OBSTRUCTIONS TO VISION.

      THIS PRODUCT IS RELEASED AS TWO VERSIONS.  ONE VERSION NEAR
      THE TOP OF THE HOUR CONTAINING PRELIMINARY DATA FROM ALBUQUERQUE
      AND OTHER STATIONS.  A FINAL VERSION WITH ADDITIONAL DATA IS
      ISSUED ABOUT 10 MINUTES AFTER THE HOUR.

NMZ501-503-504-510>518-051100-
NORTHWEST PLATEAU/NORTHCENTRAL MOUNTAINS

CITY           SKY/WX    TMP DP  RH WIND       PRES   REMARKS
FARMINGTON     FAIR      50  30  46 E8        30.15R
SANTA FE       FAIR      46  21  37 CALM      30.23S
TAOS           FAIR      36  25  64 CALM      30.29S

$$
NMZ402-403-502-505>509-051100-
WESTCENTRAL MOUNTAINS/SOUTHWEST MOUNTAINS

CITY           SKY/WX    TMP DP  RH WIND       PRES   REMARKS
GALLUP         FAIR      50  29  44 VRB5      30.19R
GRANTS         FAIR      44  30  59 S5        30.23R
SILVER CITY      N/A     57  23  26 E9        30.17F

$$
NMZ407-409-411-412-051100-
SOUTHERN DESERTS

CITY           SKY/WX    TMP DP  RH WIND       PRES   REMARKS
LORDSBURG      FAIR      61  21  21 SE13      30.06S
DEMING         FAIR      59  21  23 NE5       30.10S
HOLLOMAN AFB   FAIR      50  19  29 NE7       30.12S
ALAMOGORDO     FAIR      55  19  24 N7        30.14S
T OR C         FAIR      56  24  29 NW7       30.14S

$$
NMZ519>523-051100-
CENTRAL VALLEYS/CENTRAL HIGHLANDS

CITY           SKY/WX    TMP DP  RH WIND       PRES   REMARKS
ALBUQUERQUE    FAIR      57  24  28 N7        30.19R
DOUBLE EAGLE   FAIR      47  25  41 E3        30.21S
CLINES CORNERS FAIR      42  20  41 W7        30.25S
BELEN          FAIR      51  21  30 SE3       30.17S
SOCORRO        NOT AVBL

$$
NMZ524>526-539-540-051100-
SOUTHCENTRAL MOUNTAINS

CITY           SKY/WX    TMP DP  RH WIND       PRES   REMARKS
RUIDOSO        NOT AVBL

$$
NMZ527>531-051100-
NORTHEAST HIGHLANDS/NORTHEAST PLAINS

CITY           SKY/WX    TMP DP  RH WIND       PRES   REMARKS
LAS VEGAS      FAIR      45  22  40 S7        30.26S
RATON          FAIR      39  30  70 NE7       30.22S WCI  34
CLAYTON        FAIR      49  35  58 W10       30.15F

$$
NMZ532>537-051100-
EASTCENTRAL PLAINS

CITY           SKY/WX    TMP DP  RH WIND       PRES   REMARKS
TUCUMCARI      FAIR      51  32  48 W9        30.13S
CANNON AFB     CLEAR     55  29  36 CALM      30.14F
CLOVIS AIRPORT FAIR      52  30  43 CALM      30.16S

$$
NMZ028-029-538-051100-
SOUTHEAST PLAINS

CITY           SKY/WX    TMP DP  RH WIND       PRES   REMARKS
ROSWELL        FAIR      50  25  37 SW5       30.12S
ARTESIA        FAIR      48  23  37 NW5       30.13R
CARLSBAD       FAIR      53  30  41 N9        30.11R
HOBBS          FAIR      46  27  46 N6        30.15R


$$




USA.gov is the U.S. government's official web portal to all federal, state and local government web resources and services.